Tracking 18951 objects as of 21-Jan-2018
HD Live streaming from Space Station
objects crossing your sky now

COSMOS 1535

Track COSMOS 1535 now!
10-day predictions
COSMOS 1535 is classified as:


NORAD ID: 14679
Int'l Code: 1984-010A
Perigee: 958.5 km
Apogee: 1,018.5 km
Inclination: 83.0 °
Period: 104.7 minutes
Semi major axis: 7359 km
RCS: 2.2768 m2 (large)
Launch date: February 2, 1984
Source: Commonwealth of Independent States (former USSR) (CIS)
Launch site: PLESETSK MISSILE AND SPACE COMPLEX (PKMTR)
aabbcc
Your satellite tracking list
Your tracking list is empty




NASA's NSSDC Master Catalog

Two Line Element Set (TLE):
1 14679U 84010A   18020.81264740  .00000074  00000-0  62051-4 0  9992
2 14679  82.9577 264.4259 0040743 263.8139 141.2617 13.75078632673290
Source of the keplerian elements: AFSPC